Location: Carri�res
(48.9069°N, 2.1792°E)
Time: 04:20:29
(UTC+00:00)

Cosmos 1943 - Pass Details

Date: 17 January 2021
Orbit: 834 x 850 km, 71.0° (Epoch: 26 February)

Event Time Altitude Azimuth Distance (km) Brightness Sun altitude
Rises 18:19:44 0° 327° (NNW) 3,421 6.7 -18.3°
Reaches altitude 10° 18:22:16 10° 322° (NW) 2,479 6.0 -18.7°
Maximum altitude 18:27:40 46° 251° (WSW) 1,117 4.3 -19.6°
Drops below altitude 10° 18:33:01 10° 179° (S) 2,453 5.7 -20.4°
Sets 18:35:31 0° 173° (S) 3,380 6.4 -20.8°
